Theta_e
312 317 318 322 326 327 329 329 328 328 328 334 337 339 341 346 352 357 342 339 343 345 342 340 334 342 343 342 340 337 332 330 333 333 330 332 335 337 338 337 337 336 336 335 334 332 330 328 327
314 316 319 324 327 329 329 328 327 328 329 335 338 337 341 350 347 346 343 340 344 344 341 340 334 342 343 342 341 337 333 332 333 332 334 335 337 337 337 337 336 334 334 333 332 330 327 325 324
312 316 322 325 326 327 327 328 327 327 326 333 339 340 344 353 345 345 343 342 344 343 342 341 334 340 342 342 341 337 332 333 332 334 336 336 336 337 336 337 335 332 333 332 330 327 325 322 319
314 319 322 325 327 327 326 327 325 326 325 331 334 343 349 347 346 345 342 342 343 342 343 336 333 339 341 341 340 335 331 331 332 334 334 335 335 336 336 335 333 331 331 330 326 325 323 319 320
313 319 323 324 324 325 326 326 325 326 326 325 326 337 352 347 345 343 342 342 341 341 344 339 332 333 338 338 335 332 330 330 333 333 333 335 336 336 335 333 331 330 329 326 325 323 319 318 319
316 317 319 321 322 322 323 325 324 325 326 326 326 328 354 346 345 342 343 342 341 345 341 339 334 330 330 331 331 331 329 330 334 335 334 334 335 335 334 331 330 329 327 325 323 322 319 319 319
315 317 317 318 318 318 321 323 323 324 324 324 325 327 349 346 345 342 342 343 343 344 341 339 338 336 330 329 330 331 333 331 334 334 335 335 334 334 331 329 328 327 326 324 322 321 317 318 319
315 316 316 317 317 317 319 319 320 321 323 324 324 326 344 346 343 342 345 345 344 342 340 339 338 336 335 335 333 333 335 335 333 334 335 334 334 332 329 329 327 326 324 323 321 318 316 317 318
314 314 315 316 316 317 318 317 319 319 319 324 325 333 347 344 342 343 344 343 343 342 341 341 338 337 337 336 336 335 334 334 333 334 333 333 334 332 332 328 325 324 322 321 320 314 316 317 317
313 314 314 317 317 316 317 317 317 318 318 328 336 339 346 343 342 342 342 343 343 344 342 341 340 338 336 333 335 335 335 333 334 335 333 334 333 332 329 326 323 322 321 316 314 314 315 317 318
313 313 315 316 315 315 316 316 317 316 318 324 330 339 345 344 342 341 341 342 342 343 343 342 340 338 334 333 332 332 332 332 333 333 333 334 333 330 327 324 324 322 320 318 319 317 319 319 319
313 313 314 314 313 313 314 315 315 315 317 320 323 338 343 343 342 341 342 341 341 342 341 341 339 340 334 333 331 331 330 330 332 332 332 334 332 331 327 327 326 324 321 320 319 318 319 319 319
312 313 313 313 312 312 313 313 313 313 315 317 318 331 341 344 343 342 341 341 341 341 342 341 339 339 336 333 331 330 330 330 332 331 333 332 332 330 329 328 327 325 322 319 318 318 318 318 317
312 312 312 312 312 312 311 312 312 313 313 313 314 318 332 337 341 342 341 340 340 341 340 341 339 338 336 334 335 336 335 332 331 330 333 330 332 330 329 328 325 325 322 319 316 317 317 317 316
310 310 311 311 311 311 311 311 311 313 313 313 313 314 318 331 333 340 340 340 340 339 341 339 339 335 335 334 335 333 331 330 329 329 332 331 332 330 327 328 326 325 323 319 317 316 316 316 315
310 310 310 311 311 311 311 311 313 313 313 313 312 313 314 318 329 332 339 339 339 340 339 340 338 336 334 334 332 332 330 329 328 331 332 330 332 330 328 329 326 324 323 321 317 315 315 314 313
311 311 311 311 313 312 310 310 313 312 312 312 313 313 314 317 322 328 334 339 339 338 339 338 337 336 335 334 332 331 330 329 328 330 330 330 331 329 329 329 327 325 324 322 318 316 313 312 311
311 311 311 311 312 310 311 310 313 312 312 312 313 314 313 314 318 325 332 338 338 338 338 337 336 336 334 333 332 330 329 329 328 329 329 328 331 330 330 329 326 325 324 323 320 316 313 312 311
311 311 312 312 312 310 310 310 311 312 312 312 313 313 313 314 315 320 330 337 338 337 338 337 336 335 334 334 331 330 329 329 328 328 329 328 329 331 330 330 326 326 324 323 321 318 315 313 312
311 312 312 312 311 309 310 311 312 313 312 312 312 313 313 313 313 314 317 333 339 337 337 338 337 335 334 333 330 329 330 328 328 329 329 329 329 330 330 329 327 325 324 324 321 319 316 314 312
307 309 311 312 312 310 310 312 312 312 312 312 312 313 313 313 312 313 314 321 338 338 336 337 337 335 334 332 330 329 330 329 329 329 330 329 328 330 331 330 326 323 324 322 321 319 317 316 314
300 304 306 308 311 312 313 314 314 312 312 312 313 313 313 313 313 313 313 316 327 336 338 337 336 335 333 331 330 330 329 328 328 327 330 329 328 330 331 331 327 325 324 321 322 318 317 318 316
299 300 303 306 308 311 312 314 314 314 313 313 313 312 313 313 313 313 313 313 319 331 337 337 336 334 333 331 331 331 329 328 328 328 329 331 330 330 331 330 329 327 326 323 321 317 316 318 319
300 299 300 304 307 310 310 313 313 313 312 312 312 313 312 312 312 312 312 312 316 324 332 337 336 334 332 331 332 332 330 329 328 328 328 329 331 331 331 329 328 326 325 322 321 318 316 317 319
303 299 301 304 311 309 309 311 313 312 312 312 312 314 315 316 316 316 316 315 316 321 328 334 335 335 332 331 332 332 331 328 328 328 329 328 331 330 330 330 328 326 326 323 320 320 317 316 318
304 301 300 303 307 308 307 310 311 311 311 315 316 315 316 316 317 317 318 318 319 320 324 333 334 334 333 331 331 331 331 330 327 326 328 329 329 331 329 330 329 328 325 323 322 321 320 317 318
303 303 300 301 307 309 309 310 316 314 315 315 314 313 314 313 313 314 315 316 317 318 320 326 332 333 333 332 331 331 331 330 328 327 327 329 329 330 330 330 329 327 326 323 322 321 321 318 318
304 305 304 303 305 308 309 311 316 313 311 311 312 311 311 311 310 311 313 314 315 316 318 320 326 332 332 330 331 331 331 331 329 327 328 327 328 330 332 330 329 327 326 324 322 322 322 320 318
305 306 305 302 304 313 311 311 309 309 307 306 306 306 308 308 308 309 310 311 312 314 316 318 320 327 332 331 331 330 330 331 330 328 329 329 329 330 332 332 330 327 326 325 324 323 323 320 321
306 306 304 303 306 311 313 311 304 304 303 304 305 305 305 305 305 307 307 308 309 311 314 317 320 320 326 333 331 331 331 331 331 329 330 330 330 331 331 331 330 329 326 326 324 323 324 323 323
Wind_Speed
9 12 11 13 7 8 17 9 6 6 9 4 1 3 9 15 17 8 12 15 25 25 25 22 22 23 21 23 24 24 24 23 22 24 26 26 26 25 25 25 25 25 24 23 23 23 22 22 22
9 10 12 9 8 13 13 7 7 9 12 4 5 4 4 15 14 15 13 21 26 26 25 23 25 24 22 22 24 24 22 23 24 25 27 27 25 24 24 25 25 23 23 23 23 23 22 23 23
9 10 9 11 13 16 14 9 7 10 5 5 4 7 8 9 6 10 15 26 26 26 25 24 26 26 23 23 24 23 23 23 25 27 28 25 23 23 24 24 23 23 22 23 24 22 22 24 31
8 10 9 11 19 16 16 6 9 10 5 8 4 10 9 7 5 7 24 27 26 26 25 27 27 26 25 24 24 24 24 24 26 27 25 24 23 24 24 23 21 22 22 23 23 23 22 29 29
13 9 12 15 20 21 13 8 2 7 7 5 3 7 8 8 6 18 26 26 26 26 25 26 28 27 26 25 24 24 25 27 27 25 23 23 23 24 24 21 21 23 24 23 23 23 23 28 27
9 9 13 16 20 19 17 7 8 10 9 8 7 8 9 4 10 22 26 25 25 27 25 25 28 27 26 25 24 25 26 28 27 24 22 22 23 22 21 19 24 23 24 23 23 23 26 28 26
13 11 16 19 17 11 11 6 10 11 11 11 8 10 7 9 15 22 23 23 21 25 27 26 24 25 25 24 25 27 26 25 26 23 23 22 22 21 19 19 23 23 23 23 22 23 25 25 26
11 13 19 18 13 13 9 5 7 11 15 3 5 7 13 17 18 22 23 23 18 25 27 27 24 24 23 22 25 27 26 24 24 23 22 20 21 19 17 20 22 23 23 23 22 22 25 27 26
10 12 14 19 17 13 11 5 8 2 11 5 10 6 16 22 23 18 22 20 21 26 25 25 27 25 22 22 23 25 25 25 23 24 21 19 19 18 18 19 22 24 23 23 20 24 29 27 24
12 12 19 16 9 5 2 9 11 9 13 10 5 3 18 23 23 20 20 21 23 25 26 28 26 25 25 23 24 21 21 21 20 20 20 20 18 18 19 20 21 20 21 20 22 24 23 18 14
14 18 17 11 6 8 9 10 4 11 13 12 16 10 15 21 21 20 21 23 25 26 26 27 27 25 25 25 26 23 22 21 20 21 17 20 19 20 18 21 17 16 18 20 17 15 10 9 12
21 19 17 12 2 9 13 8 6 11 5 10 8 13 12 16 16 21 23 24 26 24 25 27 26 22 25 25 26 24 24 22 22 20 15 18 19 18 19 16 15 15 13 14 11 13 12 12 14
15 18 16 12 8 12 13 11 12 12 11 8 7 11 14 16 18 20 20 24 24 27 24 26 26 21 21 26 24 24 23 24 23 21 16 15 18 17 18 16 15 12 13 12 13 15 15 14 14
11 12 20 13 14 14 15 17 16 11 12 10 13 14 15 15 19 20 16 21 24 25 27 24 27 26 21 21 20 17 19 21 19 19 17 20 20 19 18 16 16 12 13 13 14 15 15 14 13
11 14 17 18 16 17 12 21 24 17 13 16 18 15 14 15 18 23 23 19 24 25 26 29 25 27 24 25 21 22 23 21 19 19 19 21 17 22 23 17 15 14 13 14 14 14 13 14 13
15 18 19 21 21 19 16 22 22 27 19 19 16 18 17 17 18 20 24 24 25 25 28 28 29 27 27 25 22 21 22 21 20 17 17 21 19 20 22 17 17 16 15 14 15 14 14 13 13
20 19 22 20 24 19 19 18 15 7 12 18 18 15 15 16 14 18 21 25 26 29 28 30 29 29 28 24 24 21 21 20 20 16 19 24 20 24 22 19 17 19 17 15 15 15 14 14 13
18 25 21 22 14 17 23 21 10 11 9 12 15 15 14 15 16 18 19 26 26 26 30 30 30 30 30 25 24 21 21 18 18 16 21 27 20 23 20 20 19 20 18 16 15 16 15 14 13
23 26 27 15 15 15 19 22 24 17 13 13 12 11 14 16 14 13 19 22 25 28 31 32 30 32 34 30 28 24 23 18 17 19 17 27 22 23 23 22 25 20 20 19 17 17 17 15 14
18 22 24 19 10 6 13 20 20 20 19 17 18 16 15 14 16 17 15 19 24 27 27 30 31 34 34 28 31 27 20 19 18 17 20 24 27 25 25 23 27 23 21 20 21 18 19 16 18
19 21 21 22 20 20 17 20 22 20 15 18 16 14 13 15 14 16 17 19 26 27 30 30 33 36 35 30 29 29 19 16 19 19 20 24 27 27 26 27 26 27 23 24 26 22 21 19 19
22 22 24 24 22 20 21 17 22 24 23 21 19 21 19 18 16 14 17 20 21 26 28 32 32 33 36 36 34 31 26 25 25 26 23 23 30 28 28 27 28 28 25 25 25 26 25 18 19
22 22 22 23 23 23 25 17 15 20 24 29 19 14 13 15 17 16 14 18 22 23 26 30 30 35 34 39 36 33 31 26 27 26 24 24 31 30 29 33 29 29 28 28 29 28 29 23 17
16 20 20 18 19 18 26 20 15 15 12 10 11 12 10 8 10 6 14 16 16 21 24 26 31 32 38 40 37 37 35 29 24 25 26 26 27 30 30 39 35 32 29 28 35 30 33 27 19
17 15 12 14 16 13 23 23 16 3 4 11 12 9 5 4 0 2 5 10 13 16 23 26 27 29 36 39 38 38 35 36 35 31 31 33 30 32 35 40 40 36 33 29 32 32 30 33 24
14 14 12 17 16 16 23 23 20 9 5 12 12 6 4 4 6 5 5 6 5 9 18 22 26 29 33 37 38 39 38 35 37 39 32 34 32 33 38 42 41 40 36 33 34 33 28 34 30
5 13 16 20 8 9 15 15 20 21 20 10 9 3 6 7 9 9 8 7 7 8 12 16 22 27 32 34 38 37 37 36 36 35 36 30 30 28 34 42 43 41 39 37 37 34 31 29 34
15 6 7 4 4 9 14 16 8 13 11 11 11 12 14 13 12 12 12 11 11 11 12 15 17 26 29 35 35 38 37 37 34 28 29 36 32 30 31 39 43 41 41 39 35 32 30 30 32
6 7 8 10 7 4 9 5 6 11 10 12 11 11 11 13 14 14 16 17 16 15 15 16 19 22 29 34 37 38 37 35 34 31 30 32 33 31 32 33 41 39 40 41 37 34 31 33 32
12 7 8 9 2 2 5 6 10 16 14 11 12 12 14 15 15 14 19 20 20 19 17 18 22 26 28 31 35 37 38 37 36 36 32 29 30 29 32 31 34 39 38 39 40 37 33 34 35
Wind_Direction
306 291 279 267 249 237 261 247 300 134 203 65 157 318 2 29 25 82 136 136 133 135 144 141 142 137 146 158 153 147 145 139 135 128 124 121 117 117 117 112 106 100 94 90 87 83 82 83 84
288 283 251 270 250 245 245 249 177 237 75 115 122 162 188 79 65 125 131 138 140 141 142 142 145 140 147 153 154 150 149 142 138 132 126 122 123 121 117 111 108 102 96 92 88 86 86 84 85
281 258 266 235 240 252 260 256 240 99 78 211 143 303 59 81 98 118 133 142 141 144 145 148 147 144 149 152 152 152 148 144 141 135 129 126 125 122 118 114 108 102 96 94 92 90 87 89 95
246 224 246 258 248 240 269 195 236 133 176 289 20 139 90 45 117 129 148 148 145 147 145 150 150 147 151 152 152 152 148 146 143 137 133 131 127 125 122 116 108 104 100 96 96 93 91 103 100
236 258 240 233 247 259 258 275 163 240 218 174 244 147 95 66 113 141 151 149 148 148 142 149 153 152 151 154 155 152 150 148 144 137 135 133 130 130 126 119 113 106 101 99 97 95 96 106 99
236 247 241 243 238 245 250 198 187 236 217 230 241 275 88 120 142 150 151 152 152 141 146 150 154 153 153 155 156 152 150 149 144 139 139 137 137 134 127 119 112 106 104 102 99 98 104 108 102
251 237 249 260 267 239 227 233 214 219 221 231 234 252 96 139 146 153 151 142 142 140 149 151 150 151 154 156 156 153 147 149 148 143 142 139 138 134 124 118 112 109 106 105 105 105 109 108 102
276 261 264 255 266 258 220 206 242 252 243 227 295 237 179 147 155 154 137 141 141 143 149 152 153 150 148 149 156 156 150 152 152 147 144 143 139 130 121 118 114 112 110 109 111 111 110 110 109
253 261 248 249 247 244 112 206 164 277 246 180 214 292 97 140 155 140 135 142 151 152 157 157 155 155 154 152 155 156 157 155 152 151 148 138 134 126 116 125 120 117 115 114 117 116 115 108 98
231 233 250 260 313 284 148 231 182 210 215 163 174 152 125 145 153 152 154 160 164 160 161 159 160 160 156 156 156 155 155 155 155 155 160 150 140 131 123 128 126 123 117 112 111 116 114 107 100
241 248 267 265 287 297 266 219 165 226 196 185 185 153 142 157 165 164 167 169 173 165 165 165 164 167 162 158 161 163 165 165 166 163 178 141 134 131 138 132 124 121 115 121 121 141 139 108 103
246 259 262 272 327 260 250 253 213 246 203 95 91 145 157 165 174 174 179 176 173 177 170 165 168 175 170 160 170 169 175 173 167 174 173 138 148 145 145 144 144 143 139 138 133 125 120 110 107
241 262 259 260 233 253 268 247 228 231 243 141 155 174 172 170 181 183 193 171 176 179 173 165 166 168 172 164 177 174 179 174 171 179 176 164 161 161 155 156 155 161 145 141 132 129 124 118 112
274 276 259 235 243 238 245 244 238 230 241 219 215 212 188 186 180 175 198 180 183 169 181 167 164 174 173 172 166 167 167 177 177 179 170 181 165 164 162 161 160 159 151 143 140 135 132 125 120
254 251 250 244 237 237 236 248 240 227 205 225 219 216 214 199 188 175 186 194 185 183 173 181 172 169 173 175 168 172 173 180 186 183 168 181 164 164 162 165 166 162 151 146 141 140 136 133 129
251 243 251 235 223 225 227 250 228 216 213 216 214 214 214 218 201 195 183 191 185 184 182 180 178 173 179 179 173 177 177 181 187 172 171 179 180 169 170 172 170 160 156 153 150 149 146 142 139
236 250 239 241 228 203 204 244 233 184 220 227 209 202 209 204 211 208 185 183 187 184 182 178 179 179 182 171 177 174 180 181 186 179 182 183 186 184 179 176 172 161 162 161 159 155 154 149 145
247 236 235 251 190 212 232 232 213 184 191 208 208 197 204 222 199 207 198 174 187 186 180 178 180 180 181 171 173 173 183 189 190 185 184 191 190 189 183 179 172 171 169 168 167 160 159 158 154
260 270 272 269 224 205 226 245 237 182 199 195 196 204 198 204 208 196 201 177 181 190 185 181 179 179 179 177 170 171 176 195 196 196 190 199 194 193 184 181 176 179 177 176 171 167 162 161 159
266 270 253 255 235 200 244 247 238 215 202 214 211 207 205 203 206 191 193 203 183 194 197 188 185 182 183 186 163 171 177 191 208 192 198 198 199 198 193 188 181 184 181 179 176 176 167 170 170
262 261 261 258 246 221 232 250 252 244 227 222 228 235 225 213 211 213 193 205 184 193 193 192 191 187 185 179 168 171 184 169 213 207 201 200 202 203 200 193 191 185 184 184 179 183 179 175 183
273 261 262 259 253 241 206 249 234 235 238 229 234 233 228 226 219 223 209 203 202 193 198 195 190 186 182 178 178 182 186 170 209 209 200 202 202 207 203 200 197 192 191 190 191 189 185 183 189
286 287 274 267 247 249 242 232 245 245 226 214 213 229 228 226 227 210 224 212 211 195 196 198 190 187 185 183 186 188 190 198 192 202 204 195 202 207 204 202 199 197 198 196 191 191 190 187 198
278 264 264 255 255 234 235 236 228 234 216 194 216 195 194 200 192 223 194 218 225 202 199 195 195 189 189 191 191 192 194 196 196 202 199 206 200 201 206 207 203 199 200 200 205 200 200 195 195
266 239 236 230 227 227 224 237 230 217 291 189 144 97 105 80 79 184 235 212 232 228 196 194 201 194 192 195 194 196 201 202 203 200 203 206 191 201 207 206 206 203 204 207 205 202 204 205 204
290 261 230 228 214 221 230 220 225 185 112 85 77 54 52 19 20 334 320 320 278 256 233 195 199 196 195 197 198 200 202 206 207 212 209 214 201 198 207 214 212 211 205 203 204 204 208 207 207
267 247 258 252 301 275 211 190 59 32 27 60 81 51 27 5 345 318 319 300 288 267 265 258 200 206 199 203 202 204 206 209 212 215 220 225 217 204 204 211 213 212 212 209 210 205 206 209 207
251 337 256 99 251 205 216 168 73 43 18 19 23 15 358 336 334 326 319 322 315 299 281 261 256 214 203 205 210 208 208 214 218 216 225 224 226 219 203 207 212 211 210 208 205 205 205 206 208
175 223 224 212 237 317 190 66 16 32 34 17 355 339 324 336 328 328 322 319 311 302 286 268 258 246 212 204 208 215 215 219 216 215 224 224 223 227 216 205 207 212 208 206 202 205 205 205 208
43 275 255 199 241 346 300 97 22 14 13 360 356 346 339 338 332 326 322 320 315 310 300 278 257 245 240 213 213 215 218 219 217 215 223 222 222 227 222 214 209 211 211 205 203 205 206 204 207